Regional Weather Roundup
Issued by NWS

Home | Current Version | Previous Version | Text Only | Print | Product List | Glossary Off
Versions: 1 2 3 4 5 6 7 8 9 10 11 12 13 14 15 16 17 18 19 20 21 22 23 24 25 26 27 28 29 30 31 32 33 34 35 36 37 38 39 40 41 42 43 44 45 46 47 48 49 50

000
ASUS43 KLOT 220708
RWRIL

ILLINOIS REGIONAL WEATHER ROUNDUP
NATIONAL WEATHER SERVICE CHICAGO/ROMEOVILLE IL
200 AM CDT TUE MAY 22 2018

NOTE: "FAIR" INDICATES FEW OR NO CLOUDS BELOW 12,000 FEET WITH NO
SIGNIFICANT WEATHER AND/OR OBSTRUCTIONS TO VISIBILITY.

* THESE STATIONS ARE NOT UNDER NWS QUALITY CONTROL. THEY ALSO MAY NOT
  REPORT WEATHER SUCH AS PRECIPITATION OR FOG.

ILZ001-002-007-009-015-016-024-220800-
NORTHWEST ILLINOIS

CITY           SKY/WX    TMP DP  RH WIND       PRES   REMARKS
MOLINE         FAIR      62  59  90 W6        30.00S
SAVANNA*       RAIN      63  62  98 W5        29.99F
$$

ILZ003-004-008-010-011-017-018-220800-
NORTH CENTRAL ILLINOIS

CITY           SKY/WX    TMP DP  RH WIND       PRES   REMARKS
ROCKFORD       DRZL/FOG  57  57 100 NE3       29.99F VSB 1/4
FREEPORT*      FOG       58  58 100 E5        30.00F VSB 1/4
ROCHELLE*      FOG       59  59 100 CALM      29.99S VSB 1/2
DE KALB*       FOG       59  59 100 NW5       29.99S VSB 1/4
PERU*          FOG       66  65  97 N5        29.98F VSB 1/4
$$

ILZ005-006-012>014-019>023-220800-
NORTHEAST ILLINOIS

CITY           SKY/WX    TMP DP  RH WIND       PRES   REMARKS
CHICAGO-OHARE  FOG       54  53  97 CALM      29.97S VSB 1/4
CHICAGO-MIDWAY CLOUDY    57  57 100 NE6       29.96F FOG
AURORA         FOG       60  60 100 CALM      29.97S VSB 1/2
LANSING*       CLOUDY    57  57 100 CALM      29.98S FOG
JOLIET*        CLOUDY    65  65 100 CALM      29.97S FOG
WAUKEGAN       FOG       50  50 100 NW3       29.98S VSB 1
DUPAGE AIRPORT FOG       58  58 100 CALM      29.97S VSB 1/4
KANKAKEE*      FOG       60  59  97 CALM      29.97S VSB 1/4
WHEELING       FOG       53  53 100 CALM      29.99S VSB 1/4
MORRIS*        FOG       64  64  98 CALM      29.95F VSB 1
ROMEOVILLE*    CLOUDY    62  62 100 CALM      29.98R FOG
NORTHERLY ISL    N/A     51  49  92 NW3         N/A
$$

LMZ740>746-220800-
SOUTHERN LAKE MICHIGAN

STATION/POSITION SKY/WX   TEMP    WIND        PRES    VSBY  WAVE
                          AIR SEA DIR/SP/G                  HT/PER
                          (F)     (DEG/KT/KT) (MB)    (MI)  (FT/S)
WILMETTE HARBOR            45 47  350/ 10/ 12   N/A           1/ 3
HARRISON CRIB              48     360/  6/  7   N/A
BURNHAM HARBOR             51      20/  5       N/A
CALUMET HARBOR             51     360/  4/  6 1014.4F
BURNS HARBOR               55        CALM     1015.6S
MICHIGAN CITY 6N           53 54  300/  4/  6   N/A           1
ST. JOSEPH                 57 53  160/  4/  6 1014.9          1
$$

ILZ025>027-034>036-040-047-049-050-058-095>099-220800-
WEST-CENTRAL ILLINOIS

CITY           SKY/WX    TMP DP  RH WIND       PRES   REMARKS
QUINCY         MOCLDY    64  61  90 W6        30.00S
GALESBURG*     MOCLDY    60  60  97 N3        30.00F FOG
MACOMB*        MOCLDY    63  61  96 CALM      30.01F
JACKSONVILLE*  PTCLDY    66  64  93 W3        29.98F
PITTSFIELD*    PTCLDY    68  64  89 W5        30.01S
$$

ILZ028>032-037-038-041>044-048-051>054-059>061-220800-
CENTRAL ILLINOIS

CITY           SKY/WX    TMP DP  RH WIND       PRES   REMARKS
PONTIAC        CLOUDY    67  67  99 SW6       29.98S
BLOOMINGTON    MOCLDY    68  66  93 W10       30.00S
DECATUR        MOCLDY    69  67  93 SW7       29.98F
PEORIA         MOCLDY    67  63  87 CALM      29.99S
LACON*         CLOUDY    65  65 100 CALM      29.98S FOG
LINCOLN*       FAIR      68  68  99 CALM      29.98F FOG
SPRINGFIELD    FAIR      67  66  97 W5        29.98F FOG
TAYLORVILLE    FAIR      66  66 100 S5        29.99F
$$

ILZ033-039-045-046-055>057-062-063-220800-
EAST-CENTRAL ILLINOIS

CITY           SKY/WX    TMP DP  RH WIND       PRES   REMARKS
CHAMPAIGN      FAIR      65  65 100 SW5       29.99S FOG
DANVILLE*      FAIR      65  65 100 SW5       29.96F
RANTOUL*       FAIR      68  67  97 SW7       29.98F FOG
MATTOON        FAIR      68  67  96 S5        29.99S
PARIS*         FAIR      64  64 100 S5        30.01S
$$

ILZ079-100>102-220800-
SOUTHWEST ILLINOIS

CITY           SKY/WX    TMP DP  RH WIND       PRES   REMARKS
ALTON          CLOUDY    68  68 100 SW6       29.99F
BELLEVILLE     PTCLDY    69  68  94 W3        29.98S
CAHOKIA*       PTCLDY    69  67  93 CALM      29.99S
SPARTA*        CLEAR     69  69 100 SW3       30.00F
$$

ILZ064>066-069>071-074>076-080>082-084>086-088>090-092>094-220800-
SOUTH-CENTRAL ILLINOIS

CITY           SKY/WX    TMP DP  RH WIND       PRES   REMARKS
CARBONDALE     FAIR      67  66  97 CALM      29.99F
CAIRO*         FAIR      70  70  98 CALM      30.00S
EFFINGHAM*     FAIR      66  66 100 CALM      30.01F FOG
MARION         FAIR      67  66  98 CALM      30.01F
CENTRALIA*     CLEAR     68  68  98 CALM      29.99F
SALEM*         FAIR      68  66  93 CALM      30.00S FOG
$$

ILZ067-068-072-073-078-083-087-091-220800-
SOUTHEAST ILLINOIS

CITY           SKY/WX    TMP DP  RH WIND       PRES   REMARKS
LAWRENCEVILLE  FAIR      69  68  96 S3        30.01S FOG
FLORA*         FAIR      66  65  96 CALM      30.01S FOG
FAIRFIELD*     FAIR      65  65 100 CALM      29.99F FOG
HARRISBURG*    FAIR      66  66 100 CALM      30.00F FOG
ROBINSON*      FAIR      65  65 100 CALM      30.01S FOG
CARMI*         FAIR      68  68 100 CALM      30.00S FOG
$$

ABBREVIATIONS USED IN REMARKS
   TC - TEMPERATURE IN CELSIUS
  WCI - WIND CHILL INDEX
   HX - HEAT INDEX
  VSB - VISIBILITY
$$





USA.gov is the U.S. government's official web portal to all federal, state and local government web resources and services.